{"data":{"norad_id":55936,"intl_designator":"2023-037Y","name":"STARLINK-5882","alt_names":[],"object_type":"PAYLOAD","status":"ACTIVE","operator":null,"country":"US","launch_date":"2023-03-17","launch_site_code":"AFWTR","launch_vehicle":null,"mission":null,"orbit_class":"UNKNOWN","rcs_meters":null,"size_class":null,"mass_kg":null,"dimensions":null,"purposes":["comms"],"wikipedia_slug":null,"has_3d_model":false,"image_url":null,"decayed_at":null,"tle_current":{"epoch":"2026-05-25T02:32:20.080608Z","epoch_age_seconds":73264,"freshness":"FRESH","line1":"1 55936U 23037Y   26145.10578797 -.00000833  00000+0 -62010-4 0  9993","line2":"2 55936  70.0008  71.6222 0002853 273.5214  86.5619 14.98328848175921","mean_motion":14.98328848,"eccentricity":0.0002853,"inclination_deg":70.0008,"raan_deg":71.6222,"arg_perigee_deg":273.5214,"mean_anomaly_deg":86.5619,"bstar":-6.201e-5,"rev_number":17592,"period_min":96.107073018192,"perigee_km":570.07656236351,"apogee_km":574.04234445983,"semimajor_km":6950.1964534117,"source":"CELESTRAK","updated_at":"2026-05-25T13:38:17.914850Z"}}}